{"data":{"norad_id":56057,"epoch":"2026-09-19T16:06:56.402496Z","epoch_age_seconds":93497,"freshness":"FRESH","line1":"1 56057U 23043M   26262.67148614 -.00000004  00000+0 -43109-4 0  9996","line2":"2 56057  87.9152 210.0133 0001908  93.0492 267.0858 13.16593560171398","mean_motion":13.1659356,"eccentricity":0.0001908,"inclination_deg":87.9152,"raan_deg":210.0133,"arg_perigee_deg":93.0492,"mean_anomaly_deg":267.0858,"bstar":-4.3109e-5,"rev_number":17139,"period_min":109.37316144855,"perigee_km":1196.3138598394,"apogee_km":1199.2048218831,"semimajor_km":7575.8963408613,"source":"CELESTRAK","updated_at":"2026-09-20T09:00:44.788678Z"}}